Time,TemperatureF,DewpointF,PressureIn,WindDirection,WindDirectionDegrees,WindSpeedMPH,WindSpeedGustMPH,Humidity,HourlyPrecipIn,Conditions,Clouds,dailyrainin,SoftwareType,DateUTC
2013-06-06 00:03:00,66.0,62.0,30.07,ENE,73,0.0,1.0,88,0.00,,,0.00,,2013-06-06 04:03:00,
2013-06-06 00:13:00,66.0,62.0,30.07,ENE,73,0.0,1.0,88,0.00,,,0.00,,2013-06-06 04:13:00,
2013-06-06 00:23:00,66.0,63.0,30.07,ENE,73,0.0,2.0,89,0.00,,,0.00,,2013-06-06 04:23:00,
2013-06-06 00:33:00,66.0,63.0,30.06,ENE,73,0.0,1.0,89,0.00,,,0.00,,2013-06-06 04:33:00,
2013-06-06 00:42:00,66.0,63.0,30.06,ENE,73,0.0,1.0,89,0.00,,,0.00,,2013-06-06 04:42:00,
2013-06-06 00:53:00,66.0,63.0,30.06,ENE,73,0.0,1.0,89,0.00,,,0.00,,2013-06-06 04:53:00,
2013-06-06 01:02:00,66.0,63.0,30.06,ENE,73,0.0,1.0,90,0.00,,,0.00,,2013-06-06 05:02:00,
2013-06-06 01:12:00,66.0,63.0,30.06,ENE,73,0.0,1.0,90,0.00,,,0.00,,2013-06-06 05:12:00,
2013-06-06 01:23:00,66.0,63.0,30.06,ENE,73,1.0,1.0,91,0.00,,,0.00,,2013-06-06 05:23:00,
2013-06-06 01:32:00,65.0,63.0,30.05,ENE,73,0.0,1.0,92,0.10,,,0.10,,2013-06-06 05:32:00,
2013-06-06 01:42:00,65.0,63.0,30.05,ENE,73,0.0,1.0,92,0.10,,,0.10,,2013-06-06 05:42:00,
2013-06-06 01:52:00,65.0,63.0,30.04,ENE,65,1.0,3.0,94,0.19,,,0.19,,2013-06-06 05:52:00,
2013-06-06 02:02:00,64.0,63.0,30.03,North,355,0.0,3.0,95,0.31,,,0.31,,2013-06-06 06:02:00,
2013-06-06 02:12:00,64.0,63.0,30.03,North,355,0.0,3.0,95,0.31,,,0.31,,2013-06-06 06:12:00,
2013-06-06 02:22:00,64.0,63.0,30.03,ENE,59,0.0,3.0,95,0.38,,,0.38,,2013-06-06 06:22:00,
2013-06-06 02:32:00,64.0,63.0,30.02,East,85,0.0,3.0,96,0.41,,,0.52,,2013-06-06 06:32:00,
2013-06-06 02:42:00,64.0,63.0,30.02,East,85,0.0,3.0,96,0.41,,,0.52,,2013-06-06 06:42:00,
2013-06-06 02:52:00,64.0,63.0,30.01,NE,51,2.0,7.0,96,0.35,,,0.57,,2013-06-06 06:52:00,
2013-06-06 03:02:00,64.0,63.0,30.00,NE,51,4.0,7.0,96,0.34,,,0.65,,2013-06-06 07:02:00,
2013-06-06 03:12:00,64.0,63.0,30.00,NE,51,4.0,7.0,96,0.34,,,0.65,,2013-06-06 07:12:00,
2013-06-06 03:22:00,64.0,63.0,30.01,East,82,2.0,8.0,97,0.49,,,0.89,,2013-06-06 07:22:00,
2013-06-06 03:32:00,64.0,63.0,30.01,WNW,288,3.0,5.0,97,0.50,,,1.03,,2013-06-06 07:32:00,
2013-06-06 03:42:00,64.0,63.0,30.01,WNW,288,3.0,5.0,97,0.50,,,1.03,,2013-06-06 07:42:00,
2013-06-06 03:52:00,64.0,63.0,30.00,ENE,65,1.0,3.0,97,0.68,,,1.25,,2013-06-06 07:52:00,
2013-06-06 04:02:00,64.0,63.0,29.99,NW,322,0.0,0.0,97,0.64,,,1.29,,2013-06-06 08:02:00,
2013-06-06 04:12:00,64.0,63.0,29.99,NW,322,0.0,0.0,97,0.64,,,1.29,,2013-06-06 08:12:00,
2013-06-06 04:22:00,63.0,62.0,29.99,WSW,258,1.0,3.0,97,0.44,,,1.34,,2013-06-06 08:22:00,
2013-06-06 04:32:00,63.0,62.0,29.98,ESE,123,1.0,4.0,97,0.37,,,1.42,,2013-06-06 08:32:00,
2013-06-06 04:42:00,63.0,62.0,29.98,West,274,0.0,2.0,97,0.24,,,1.50,,2013-06-06 08:42:00,
2013-06-06 04:52:00,63.0,62.0,29.98,West,274,0.0,2.0,97,0.24,,,1.50,,2013-06-06 08:52:00,
2013-06-06 05:02:00,63.0,62.0,29.98,East,80,2.0,5.0,97,0.24,,,1.53,,2013-06-06 09:02:00,
2013-06-06 05:12:00,63.0,62.0,29.98,East,80,2.0,5.0,97,0.24,,,1.53,,2013-06-06 09:12:00,
2013-06-06 05:22:00,63.0,62.0,29.97,ENE,74,0.0,1.0,98,0.34,,,1.69,,2013-06-06 09:22:00,
2013-06-06 05:33:00,63.0,62.0,29.97,ENE,74,0.0,0.0,98,0.36,,,1.79,,2013-06-06 09:33:00,
2013-06-06 05:43:00,63.0,62.0,29.97,ENE,74,0.0,0.0,98,0.36,,,1.79,,2013-06-06 09:43:00,
2013-06-06 05:53:00,63.0,62.0,29.97,ENE,74,0.0,0.0,98,0.37,,,1.87,,2013-06-06 09:53:00,
2013-06-06 06:03:00,63.0,62.0,29.96,ENE,74,0.0,0.0,98,0.41,,,1.95,,2013-06-06 10:03:00,
2013-06-06 06:12:00,63.0,62.0,29.96,NNE,28,1.0,3.0,98,0.34,,,2.04,,2013-06-06 10:12:00,
2013-06-06 06:23:00,63.0,62.0,29.96,NNE,28,1.0,3.0,98,0.34,,,2.04,,2013-06-06 10:23:00,
2013-06-06 06:33:00,63.0,62.0,29.97,SE,125,1.0,2.0,98,0.37,,,2.16,,2013-06-06 10:33:00,
2013-06-06 06:42:00,63.0,62.0,29.97,SE,125,1.0,2.0,98,0.37,,,2.16,,2013-06-06 10:42:00,
2013-06-06 06:53:00,63.0,62.0,29.97,SSW,200,1.0,3.0,98,0.44,,,2.31,,2013-06-06 10:53:00,
2013-06-06 07:02:00,64.0,63.0,29.97,East,81,2.0,4.0,98,0.49,,,2.45,,2013-06-06 11:02:00,
2013-06-06 07:12:00,64.0,63.0,29.97,East,81,2.0,4.0,98,0.49,,,2.45,,2013-06-06 11:12:00,
2013-06-06 07:22:00,64.0,63.0,29.97,West,266,0.0,2.0,98,0.51,,,2.56,,2013-06-06 11:22:00,
2013-06-06 07:32:00,64.0,63.0,29.96,ENE,59,1.0,2.0,98,0.47,,,2.65,,2013-06-06 11:32:00,
2013-06-06 07:42:00,64.0,63.0,29.96,ENE,59,1.0,2.0,98,0.47,,,2.65,,2013-06-06 11:42:00,
2013-06-06 07:52:00,64.0,63.0,29.96,NNW,341,1.0,2.0,98,0.49,,,2.81,,2013-06-06 11:52:00,
2013-06-06 08:03:00,64.0,63.0,29.96,East,86,2.0,3.0,98,0.39,,,2.86,,2013-06-06 12:03:00,
2013-06-06 08:12:00,64.0,63.0,29.96,East,86,2.0,3.0,98,0.39,,,2.86,,2013-06-06 12:12:00,
2013-06-06 08:23:00,64.0,63.0,29.96,ENE,62,0.0,5.0,98,0.30,,,2.87,,2013-06-06 12:23:00,
2013-06-06 08:33:00,64.0,63.0,29.96,NW,313,1.0,3.0,98,0.22,,,2.87,,2013-06-06 12:33:00,
2013-06-06 08:43:00,64.0,63.0,29.96,West,264,1.0,3.0,98,0.07,,,2.88,,2013-06-06 12:43:00,
2013-06-06 08:53:00,64.0,63.0,29.96,West,264,1.0,3.0,98,0.07,,,2.88,,2013-06-06 12:53:00,
2013-06-06 09:03:00,64.0,63.0,29.96,SSW,200,1.0,3.0,98,0.03,,,2.88,,2013-06-06 13:03:00,
2013-06-06 09:13:00,64.0,63.0,29.96,East,85,1.0,5.0,98,0.05,,,2.92,,2013-06-06 13:13:00,
2013-06-06 09:23:00,64.0,63.0,29.96,East,85,1.0,5.0,98,0.05,,,2.92,,2013-06-06 13:23:00,
2013-06-06 09:33:00,64.0,63.0,29.96,ENE,77,1.0,4.0,98,0.07,,,2.94,,2013-06-06 13:33:00,
2013-06-06 09:43:00,64.0,63.0,29.96,ENE,77,1.0,4.0,98,0.07,,,2.94,,2013-06-06 13:43:00,
2013-06-06 09:53:00,64.0,63.0,29.96,ENE,76,4.0,5.0,98,0.07,,,2.95,,2013-06-06 13:53:00,
2013-06-06 10:03:00,64.0,63.0,29.95,NNW,342,0.0,3.0,98,0.06,,,2.95,,2013-06-06 14:03:00,
2013-06-06 10:13:00,64.0,63.0,29.95,NNW,342,0.0,3.0,98,0.06,,,2.95,,2013-06-06 14:13:00,
2013-06-06 10:23:00,65.0,64.0,29.95,ENE,71,2.0,3.0,98,0.04,,,2.95,,2013-06-06 14:23:00,
2013-06-06 10:33:00,65.0,64.0,29.96,NE,49,0.0,1.0,98,0.01,,,2.95,,2013-06-06 14:33:00,
2013-06-06 10:43:00,65.0,64.0,29.96,NE,49,0.0,1.0,98,0.01,,,2.95,,2013-06-06 14:43:00,
2013-06-06 10:52:00,65.0,65.0,29.95,NE,49,0.0,1.0,99,0.01,,,2.96,,2013-06-06 14:52:00,
2013-06-06 11:03:00,65.0,65.0,29.95,SE,141,0.0,2.0,99,0.08,,,3.03,,2013-06-06 15:03:00,
2013-06-06 11:13:00,65.0,65.0,29.95,SE,141,0.0,2.0,99,0.08,,,3.03,,2013-06-06 15:13:00,
2013-06-06 11:23:00,65.0,65.0,29.95,SSW,195,0.0,0.0,99,0.14,,,3.09,,2013-06-06 15:23:00,
2013-06-06 11:33:00,66.0,65.0,29.94,South,190,0.0,1.0,98,0.17,,,3.12,,2013-06-06 15:33:00,
2013-06-06 11:43:00,66.0,65.0,29.94,South,190,0.0,1.0,98,0.17,,,3.12,,2013-06-06 15:43:00,
2013-06-06 11:53:00,66.0,66.0,29.94,South,190,0.0,1.0,99,0.17,,,3.13,,2013-06-06 15:53:00,
2013-06-06 12:03:00,66.0,66.0,29.94,South,190,0.0,0.0,99,0.09,,,3.13,,2013-06-06 16:03:00,
2013-06-06 12:13:00,66.0,66.0,29.94,South,190,0.0,0.0,99,0.09,,,3.13,,2013-06-06 16:13:00,
2013-06-06 12:23:00,66.0,66.0,29.94,ENE,59,1.0,2.0,99,0.06,,,3.15,,2013-06-06 16:23:00,
2013-06-06 12:33:00,66.0,66.0,29.94,North,355,0.0,2.0,99,0.05,,,3.17,,2013-06-06 16:33:00,
2013-06-06 12:44:00,66.0,66.0,29.94,North,355,0.0,2.0,99,0.05,,,3.17,,2013-06-06 16:44:00,
2013-06-06 12:53:00,68.0,68.0,29.93,SE,130,2.0,5.0,99,0.05,,,3.18,,2013-06-06 16:53:00,
2013-06-06 13:03:00,68.0,68.0,29.94,West,274,2.0,5.0,99,0.12,,,3.25,,2013-06-06 17:03:00,
2013-06-06 13:13:00,66.0,66.0,29.93,ESE,110,2.0,4.0,99,0.33,,,3.48,,2013-06-06 17:13:00,
2013-06-06 13:23:00,66.0,66.0,29.93,ESE,110,2.0,4.0,99,0.33,,,3.48,,2013-06-06 17:23:00,
2013-06-06 13:33:00,66.0,66.0,29.93,WSW,244,0.0,2.0,99,0.54,,,3.71,,2013-06-06 17:33:00,
2013-06-06 13:43:00,66.0,66.0,29.93,WSW,244,0.0,2.0,99,0.54,,,3.71,,2013-06-06 17:43:00,
2013-06-06 13:53:00,67.0,67.0,29.92,East,98,0.0,3.0,99,0.74,,,3.92,,2013-06-06 17:53:00,
2013-06-06 14:03:00,67.0,67.0,29.91,WNW,296,0.0,3.0,99,0.77,,,4.03,,2013-06-06 18:03:00,
2013-06-06 14:13:00,67.0,67.0,29.91,WNW,296,0.0,3.0,99,0.77,,,4.03,,2013-06-06 18:13:00,
2013-06-06 14:23:00,68.0,68.0,29.91,NW,317,1.0,2.0,99,0.57,,,4.06,,2013-06-06 18:23:00,
2013-06-06 14:33:00,68.0,68.0,29.90,West,281,1.0,3.0,99,0.43,,,4.14,,2013-06-06 18:33:00,
2013-06-06 14:43:00,68.0,68.0,29.90,West,281,1.0,3.0,99,0.43,,,4.14,,2013-06-06 18:43:00,
2013-06-06 14:53:00,68.0,68.0,29.90,West,266,0.0,3.0,99,0.31,,,4.16,,2013-06-06 18:53:00,
2013-06-06 15:03:00,68.0,68.0,29.90,West,266,0.0,3.0,99,0.31,,,4.16,,2013-06-06 19:03:00,
2013-06-06 15:13:00,68.0,68.0,29.90,West,266,0.0,3.0,99,0.31,,,4.16,,2013-06-06 19:13:00,
2013-06-06 15:23:00,69.0,69.0,29.89,SSE,164,0.0,2.0,99,0.13,,,4.19,,2013-06-06 19:23:00,
2013-06-06 15:34:00,70.0,69.0,29.88,East,98,1.0,4.0,98,0.04,,,4.19,,2013-06-06 19:34:00,
2013-06-06 15:43:00,70.0,69.0,29.88,East,98,1.0,4.0,98,0.04,,,4.19,,2013-06-06 19:43:00,
2013-06-06 15:53:00,71.0,70.0,29.88,ESE,106,1.0,5.0,98,0.00,,,4.19,,2013-06-06 19:53:00,
2013-06-06 16:03:00,71.0,70.0,29.87,East,81,2.0,3.0,97,0.00,,,4.19,,2013-06-06 20:03:00,
2013-06-06 16:13:00,71.0,70.0,29.87,East,81,2.0,3.0,97,0.00,,,4.19,,2013-06-06 20:13:00,
2013-06-06 16:23:00,72.0,71.0,29.87,NE,51,1.0,3.0,96,0.00,,,4.19,,2013-06-06 20:23:00,
2013-06-06 16:33:00,72.0,70.0,29.87,ESE,114,0.0,2.0,94,0.00,,,4.19,,2013-06-06 20:33:00,
2013-06-06 16:42:00,72.0,70.0,29.87,ESE,114,0.0,2.0,94,0.00,,,4.19,,2013-06-06 20:42:00,
2013-06-06 16:53:00,72.0,70.0,29.87,ENE,63,2.0,3.0,94,0.00,,,4.19,,2013-06-06 20:53:00,
2013-06-06 17:03:00,72.0,70.0,29.87,ENE,69,4.0,8.0,92,0.01,,,4.20,,2013-06-06 21:03:00,
2013-06-06 17:13:00,72.0,70.0,29.87,ENE,69,4.0,8.0,92,0.01,,,4.20,,2013-06-06 21:13:00,
2013-06-06 17:23:00,72.0,69.0,29.87,ESE,103,3.0,7.0,91,0.01,,,4.20,,2013-06-06 21:23:00,
2013-06-06 17:33:00,72.0,69.0,29.87,East,94,3.0,6.0,90,0.01,,,4.20,,2013-06-06 21:33:00,
2013-06-06 17:43:00,72.0,69.0,29.87,East,94,3.0,6.0,90,0.01,,,4.20,,2013-06-06 21:43:00,
2013-06-06 17:53:00,73.0,70.0,29.86,SE,135,3.0,5.0,91,0.01,,,4.20,,2013-06-06 21:53:00,
2013-06-06 18:03:00,73.0,70.0,29.85,ESE,118,3.0,6.0,90,0.00,,,4.20,,2013-06-06 22:03:00,
2013-06-06 18:13:00,73.0,70.0,29.85,ESE,118,3.0,6.0,90,0.00,,,4.20,,2013-06-06 22:13:00,
2013-06-06 18:23:00,73.0,70.0,29.85,SE,146,3.0,6.0,90,0.00,,,4.20,,2013-06-06 22:23:00,
2013-06-06 18:33:00,73.0,70.0,29.85,SE,145,2.0,4.0,90,0.00,,,4.20,,2013-06-06 22:33:00,
2013-06-06 18:43:00,73.0,70.0,29.85,SE,145,2.0,4.0,90,0.00,,,4.20,,2013-06-06 22:43:00,
2013-06-06 18:53:00,73.0,70.0,29.84,SSE,147,1.0,5.0,90,0.00,,,4.20,,2013-06-06 22:53:00,
2013-06-06 19:02:00,73.0,70.0,29.85,SE,126,2.0,5.0,91,0.00,,,4.20,,2013-06-06 23:02:00,
2013-06-06 19:13:00,73.0,70.0,29.85,SE,126,2.0,5.0,91,0.00,,,4.20,,2013-06-06 23:13:00,
2013-06-06 19:22:00,73.0,71.0,29.84,SSE,163,2.0,5.0,92,0.00,,,4.20,,2013-06-06 23:22:00,
2013-06-06 19:33:00,72.0,70.0,29.85,South,171,1.0,4.0,93,0.00,,,4.20,,2013-06-06 23:33:00,
2013-06-06 19:43:00,72.0,70.0,29.85,South,171,1.0,4.0,93,0.00,,,4.20,,2013-06-06 23:43:00,
2013-06-06 19:52:00,72.0,70.0,29.85,SE,134,3.0,5.0,92,0.00,,,4.20,,2013-06-06 23:52:00,
2013-06-06 20:02:00,72.0,70.0,29.85,SSE,149,3.0,6.0,94,0.00,,,4.20,,2013-06-07 00:02:00,
2013-06-06 20:12:00,72.0,70.0,29.85,SSE,149,3.0,6.0,94,0.00,,,4.20,,2013-06-07 00:12:00,
2013-06-06 20:22:00,71.0,69.0,29.85,East,79,2.0,5.0,95,0.00,,,4.20,,2013-06-07 00:22:00,
2013-06-06 20:32:00,71.0,69.0,29.85,East,86,2.0,4.0,95,0.00,,,4.20,,2013-06-07 00:32:00,
2013-06-06 20:42:00,71.0,69.0,29.85,East,86,2.0,4.0,95,0.00,,,4.20,,2013-06-07 00:42:00,
2013-06-06 20:52:00,71.0,69.0,29.85,ESE,112,3.0,6.0,95,0.00,,,4.20,,2013-06-07 00:52:00,
2013-06-06 21:03:00,70.0,69.0,29.85,East,90,3.0,7.0,96,0.00,,,4.20,,2013-06-07 01:03:00,
2013-06-06 21:12:00,70.0,69.0,29.85,East,90,3.0,7.0,96,0.00,,,4.20,,2013-06-07 01:12:00,
2013-06-06 21:22:00,70.0,69.0,29.86,SW,219,1.0,4.0,96,0.00,,,4.20,,2013-06-07 01:22:00,
2013-06-06 21:32:00,70.0,69.0,29.86,SW,228,3.0,5.0,96,0.00,,,4.20,,2013-06-07 01:32:00,
2013-06-06 21:42:00,70.0,69.0,29.86,SW,228,3.0,5.0,96,0.00,,,4.20,,2013-06-07 01:42:00,
2013-06-06 21:52:00,70.0,69.0,29.86,ESE,121,1.0,4.0,96,0.00,,,4.20,,2013-06-07 01:52:00,
2013-06-06 22:02:00,70.0,69.0,29.87,SSE,155,3.0,5.0,96,0.00,,,4.20,,2013-06-07 02:02:00,
2013-06-06 22:12:00,70.0,69.0,29.87,SSE,155,3.0,5.0,96,0.00,,,4.20,,2013-06-07 02:12:00,
2013-06-06 22:22:00,70.0,69.0,29.87,SSE,148,1.0,3.0,96,0.00,,,4.20,,2013-06-07 02:22:00,
2013-06-06 22:32:00,69.0,68.0,29.87,SSE,157,2.0,4.0,96,0.00,,,4.20,,2013-06-07 02:32:00,
2013-06-06 22:42:00,69.0,68.0,29.87,SSE,157,2.0,4.0,96,0.00,,,4.20,,2013-06-07 02:42:00,
2013-06-06 22:52:00,69.0,68.0,29.87,SSE,150,2.0,5.0,97,0.00,,,4.20,,2013-06-07 02:52:00,
2013-06-06 23:02:00,69.0,68.0,29.87,SSE,166,2.0,5.0,97,0.00,,,4.20,,2013-06-07 03:02:00,
2013-06-06 23:12:00,69.0,68.0,29.87,SSE,166,2.0,5.0,97,0.00,,,4.20,,2013-06-07 03:12:00,
2013-06-06 23:22:00,69.0,68.0,29.87,SSW,200,3.0,5.0,97,0.00,,,4.20,,2013-06-07 03:22:00,
2013-06-06 23:33:00,69.0,68.0,29.87,South,177,3.0,6.0,97,0.00,,,4.20,,2013-06-07 03:33:00,
2013-06-06 23:43:00,69.0,68.0,29.87,South,177,3.0,6.0,97,0.00,,,4.20,,2013-06-07 03:43:00,
2013-06-06 23:53:00,69.0,68.0,29.87,SW,216,2.0,6.0,96,0.00,,,4.20,,2013-06-07 03:53:00,